KUIPER-00590

导读

KUIPER-00590(NORAD编号69276)是美国亚马逊公司“柯伊伯(Project Kuiper)”低轨互联网星座的组成卫星,于2025年10月随SpaceX猎鹰9号火箭执行的KF-03任务发射升空。该卫星运行于约630公里高度的低地球轨道,轨道倾角约51.9度,轨道周期约97分钟,当前处于在轨运行状态。作为柯伊伯星座的组网卫星,其核心功能是提供高带宽、低延迟的互联网通信服务,重点覆盖偏远乡村、海上等网络接入薄弱区域,同时可向企业、政府机构提供定制化通信支持,服务于全球数字化连接目标。

Basic Information
目录编号:
69276
目录名称:
KUIPER-00590
国际标识:
2026-118K
轨道中心:
EARTH
卫星名称:
KUIPER-00590
卫星全名:
KUIPER-00590
卫星状态:
在轨 (已飞行14 天)
发射日期:
2026-05-29 UTC
国别 :
美国 (US)
星等 :
--
Orbit Information
数据来源 国际轨道数据
星历时间: 2026-06-12T14:01:45+0800
16小时前
查看轨道信息
半长轴: 6830.815km
偏心率: 0.0004345
轨道倾角: 51.868°
近地点辐角 140.945°
升交点赤经 77.103°
平近点角 219.185°
近地点: 449.71km
远地点: 455.646km
周期: 93.642分钟
每日圈数: 15.377792
Detailed Information
使用方式:
暂无
2D Orbit Map
3D Orbit Map
Orbit Altitude Analysis Chart
Orbit Inclination Analysis Chart
Orbit Comprehensive Analysis Chart
View Comprehensive Chart